TINTIN B (43217 NORAD) Tracking and Keplerian Element Data

This shows tracking and keplerian element data for the satellite.

Feedback or suggestion? Click here.




ElementValue
Catalog43217
NameTINTIN B
Epoch Orbit4093
Epoch Day323.1675869
Epoch Year2018
RAAN328.918
Inclination97.4614
Eccentricity0.0013579
Argument of Perigee60.3912
Mean Anonmoly299.8673
Mean Motion15.19693335
Decay Rate1.199E-05
L11 43217U 18020C 18323.16758690 .00001199 00000-0 59300-4 0 9998
L22 43217 97.4614 328.9180 0013579 60.3912 299.8673 15.19693335 40932

Live tracking and technical data element details for TINTIN B (NORAD 43217). TINTIN B can be tracked NOW for your location showing map with azimuth and elevation plus other details from your city location.

Track the satellite on the map from your city or location and see movement details for azimuth, elevation, latitude, longitude, range, height, and movement on the map or in text.







IsCatalogInMostPopularTable: catalog: 43217, numindb: 176
Update: records affected: 1



GetName: 43217 TINTIN B

Hit Count: updated at: Mon, 19 Nov 2018 15:10:23 GMT